Weather observations for the past three days for
Ladysmith - Rusk County Airport
Imperial (Metric)
Date Time (cdt) Wind (mph) Vis. (mi.) Weather Sky Cond. Temperature (ºF) Relative Humidity Wind Chill (°F) Heat Index (°F) Pressure Precipitation (in)
Air Dwpt 6 hour altimeter (in) sea level (mb) 1 hr 3 hr 6 hr
Max. Min.
25 04:35 Calm 0.00 NULL NULL 50.7 49.8 97% 30.28 0.0
25 04:15 Calm 0.00 NULL NULL 51.6 50.2 95% 30.27 0.0
25 03:55 Calm 0.00 NULL NULL 52 50.5 95% 30.27 0.0
25 03:35 Calm 0.00 NULL NULL 51.8 50.4 95% 30.27 0.0
25 03:15 Calm 0.00 NULL NULL 51.8 50.5 96% 30.26 0.0
25 02:55 E 3 0.00 NULL NULL 51.1 49.8 95% 30.27 0.0
25 02:35 Calm 0.00 NULL NULL 52.2 50.4 94% 30.27 0.0
25 02:15 Calm 0.00 NULL NULL 53.1 51.1 93% 30.27 0.0
25 01:55 Calm 0.00 NULL NULL 53.6 50.9 91% 30.27 0.0
25 01:35 Calm 0.00 NULL NULL 54.5 51.4 89% 30.27 0.0
25 01:15 Calm 0.00 NULL NULL 54.9 51.4 88% 30.27 0.0
25 00:55 Calm 0.00 Fair CLR 55.4 51.1 72.1 55.4 85% 30.27 0.0
25 00:35 NE 3 0.00 NULL NULL 56.1 51.4 84% 30.27 0.0
25 00:15 Calm 0.00 Fair CLR 57.2 52.2 83% 30.27 0.0
24 23:55 Calm 0.00 Fair CLR 57.4 52.3 83% 30.26 0.0
24 23:35 Calm 0.00 Fair CLR 57.7 52.9 84% 30.26 0.0
24 23:15 NE 3 0.00 NULL NULL 57.4 53.4 87% 30.25 0.0
24 22:55 NE 5 0.00 NULL NULL 57.7 53.6 86% 30.25 0.0
24 22:35 NE 3 0.00 NULL NULL 58.1 53.6 85% 30.24 0.0
24 22:15 NE 6 0.00 NULL NULL 58.6 54.9 87% 30.24 0.0
24 21:55 NE 5 0.00 Fair CLR 59.7 54.9 84% 30.24 0.0
24 21:35 N 5 0.00 Fair CLR 60.3 54.7 82% 30.24 0.0
24 21:15 N 6 0.00 Fair CLR 61.3 54.7 79% 30.24 0.0
24 20:55 N 6 0.00 Fair CLR 63 55 76% 30.23 0.0
24 20:35 N 5 0.00 Fair CLR 64.6 56.7 76% 30.22 0.0
24 20:15 NE 5 0.00 Fair CLR 66.9 55.6 67% 30.22 0.0
24 19:55 NE 3 0.00 Fair CLR 69.1 55.4 62% 30.22 0.0
24 19:35 NE 3 0.00 Fair CLR 70.7 55.6 59% 30.22 0.0
24 19:15 N 5 0.00 Fair CLR 71.2 54 55% 30.22 0.0
24 18:55 N 5 0.00 Fair CLR 72.3 53.4 74.3 68 52% 30.22 0.0
24 18:35 N 7 0.00 Fair CLR 72.7 52.2 49% 30.22 0.0
24 18:15 N 6 0.00 Partly Cloudy SCT060 73.4 52.3 48% 30.22 0.0
24 17:55 N 6 0.00 Overcast OVC060 73.9 52.3 47% 30.22 0.0
24 17:35 N 5 0.00 Mostly Cloudy BKN060 73.9 52.2 47% 30.22 0.0
24 17:15 NW 5 0.00 Partly Cloudy SCT060 73.9 52.9 48% 30.22 0.0
24 16:55 NW 3 0.00 Fair CLR 71.4 51.1 49% 30.22 0.0
24 16:35 NE 5 0.00 Mostly Cloudy BKN050 71.4 52.5 51% 30.22 0.0
24 16:15 E 6 0.00 Mostly Cloudy BKN050 73.9 52.9 48% 30.22 0.0
24 15:55 Calm 0.00 Partly Cloudy SCT048 SCT050 72.7 52.7 50% 30.23 0.0
24 15:35 NE 7 0.00 Mostly Cloudy BKN050 71.6 53.6 53% 30.23 0.0
24 15:15 E 3 0.00 Partly Cloudy SCT046 SCT055 72.5 53.1 51% 30.23 0.0
24 14:55 Calm 0.00 Mostly Cloudy BKN048 BKN055 70.3 51.8 52% 30.24 0.0
24 14:35 Calm 0.00 Partly Cloudy SCT050 71.2 54.1 55% 30.24 0.0
24 14:15 Calm 0.00 Mostly Cloudy SCT043 BKN050 71.2 54 55% 30.24 0.0
24 13:55 E 5 0.00 Mostly Cloudy BKN035 BKN043 BKN050 69.8 55.6 61% 30.24 0.0
24 13:35 N 5 0.00 Overcast BKN035 OVC050 69.1 55.2 61% 30.24 0.0
24 13:15 Calm 0.00 Mostly Cloudy SCT033 BKN050 69.3 55.2 61% 30.24 0.0
24 12:55 Calm 0.00 Mostly Cloudy SCT033 BKN043 68.5 55 68.9 56.7 62% 30.24 0.0
24 12:35 NE 3 0.00 Mostly Cloudy SCT035 BKN043 67.3 53.6 62% 30.24 0.0
24 12:15 E 7 0.00 Partly Cloudy SCT039 68.2 53.8 60% 30.24 0.0
24 11:55 NE 7 0.00 Mostly Cloudy SCT029 BKN039 BKN048 68 55 63% 30.25 0.0
24 11:35 NE 8 0.00 Mostly Cloudy SCT027 BKN038 BKN045 67.1 55.2 66% 30.24 0.0
24 11:15 N 8 0.00 Overcast SCT029 OVC041 64.8 56.3 74% 30.24 0.0
24 10:55 N 6 0.00 Mostly Cloudy SCT031 BKN038 64.4 55.6 73% 30.24 0.0
24 10:35 NE 5 0.00 Mostly Cloudy SCT024 BKN035 65.1 55.2 70% 30.24 0.0
24 10:15 E 6 0.00 Mostly Cloudy SCT020 SCT025 BKN033 64.9 56.5 74% 30.24 0.0
24 09:55 NE 6 0.00 Overcast BKN018 BKN026 OVC031 63.1 55.8 77% 30.24 0.0
24 09:35 N 6 0.00 Overcast BKN018 OVC024 62.2 56.5 82% 30.24 0.0
24 09:15 N 5 0.00 Mostly Cloudy BKN016 61.9 56.7 83% 30.24 0.0
24 08:55 N 6 0.00 Fair CLR 61.2 56.5 85% 30.24 0.0
24 08:35 N 5 0.00 NULL NULL 60.6 57.6 90% 30.24 0.0
24 08:15 NW 6 0.00 NULL NULL 59.5 56.8 91% 30.24 0.0
24 07:55 N 5 0.00 NULL NULL 59.4 55.6 87% 30.24 0.0
24 07:35 Calm 0.00 NULL NULL 58.3 55.9 92% 30.23 0.0
24 07:15 Calm 0.00 NULL NULL 57.4 55.9 95% 30.23 0.0
24 06:55 N 5 0.00 NULL NULL 56.7 55.6 56.7 54.5 96% 30.23 0.0
24 06:35 NE 3 0.00 NULL NULL 56.3 55.4 97% 30.23 0.0
24 06:15 NE 5 0.00 Overcast BKN004 OVC018 56.3 55.4 97% 30.22 0.0
24 05:55 Calm 0.00 Overcast OVC004 55.9 55.4 98% 30.22 0.0
24 05:35 N 6 0.00 Overcast OVC004 55.8 55.4 99% 30.22 0.0
24 05:15 NE 5 0.00 Overcast OVC002 55.6 55.4 99% 30.21 0.0
24 04:55 NE 5 0.00 Overcast OVC002 55.6 55.2 99% 30.2 0.0
24 04:35 NE 3 0.00 Overcast OVC002 55.4 55 99% 30.19 0.0
24 04:15 NE 6 0.00 Overcast OVC002 55 54.9 99% 30.19 0.0
24 03:55 NE 3 0.00 Overcast OVC002 54.9 54.7 99% 30.18 0.0
24 03:35 NE 6 0.00 Overcast OVC002 55 54.7 99% 30.17 0.0
24 03:15 NE 5 0.00 Overcast OVC004 55 54.7 99% 30.17 0.0
24 02:55 Calm 0.00 NULL NULL 54.5 54 98% 30.17 0.0
24 02:35 Calm 0.00 NULL NULL 54.7 54.3 99% 30.17 0.0
24 02:15 Calm 0.00 NULL NULL 54.7 54.3 99% 30.16 0.0
24 01:55 Calm 0.00 NULL NULL 54.7 54.1 98% 30.16 0.0
24 01:35 Calm 0.00 NULL NULL 55.8 55 97% 30.16 0.0
24 01:15 Calm 0.00 NULL NULL 55.8 55.2 98% 30.16 0.0
24 00:55 N 5 0.00 NULL NULL 56.3 55.6 68.2 56.3 97% 30.16 0.0
24 00:35 N 6 0.00 NULL NULL 56.7 55.9 97% 30.16 0.0
24 00:15 N 5 0.00 NULL NULL 57 56.1 97% 30.16 0.0
23 23:55 N 3 0.00 NULL NULL 57.2 56.3 97% 30.16 0.0
23 23:35 N 3 0.00 NULL NULL 57.7 56.5 96% 30.16 0.0
23 23:15 N 5 0.00 NULL NULL 58.3 56.8 95% 30.16 0.0
23 22:55 N 6 0.00 NULL NULL 59 57.2 94% 30.16 0.0
23 22:35 N 6 0.00 NULL NULL 59.5 57.7 94% 30.16 0.0
23 22:15 N 8 0.00 NULL NULL 60.1 58.1 93% 30.16 0.0
23 21:55 N 7 0.00 NULL NULL 60.4 58.3 93% 30.16 0.0
23 21:35 N 6 0.00 NULL NULL 60.8 58.5 92% 30.15 0.0
23 21:15 N 6 0.00 NULL NULL 60.6 58.1 91% 30.14 0.0
23 20:55 N 6 0.00 NULL NULL 61.7 58.3 89% 30.14 0.0
23 20:35 NE 5 0.00 Fair CLR 63 57.9 84% 30.13 0.0
23 20:15 NE 5 0.00 Partly Cloudy SCT042 64.6 56.3 75% 30.12 0.0
23 19:55 NE 6 0.00 Mostly Cloudy BKN040 66.4 56.1 70% 30.12 0.0
23 19:35 NE 7 0.00 Mostly Cloudy SCT040 BKN055 66.7 56.8 71% 30.12 0.0
23 19:15 NE 8 0.00 Overcast SCT029 SCT044 OVC055 68 56.7 67% 30.11 0.0
23 18:55 NE 7 0.00 Overcast SCT036 BKN044 OVC055 68.2 58.8 71.1 64.6 72% 30.11 0.0
23 18:35 NE 8 0.00 Overcast SCT036 OVC044 68.7 59.2 72% 30.11 0.0
23 18:15 NE 9 0.00 Overcast SCT028 SCT033 OVC044 69.1 59.4 71% 30.1 0.0
23 17:55 N 7 0.00 Mostly Cloudy SCT031 BKN042 69.4 59.4 70% 30.09 0.0
23 17:35 NE 7 0.00 Partly Cloudy SCT026 70.2 59 68% 30.09 0.0
23 17:15 E 7 0.00 Mostly Cloudy SCT026 BKN050 70.9 60.1 69% 30.09 0.0
23 16:55 NE 7 0.00 Mostly Cloudy SCT026 BKN050 70 59.5 70% 30.09 0.0
23 16:35 NE 8 0.00 Overcast OVC026 68.7 59.5 73% 30.09 0.0
23 16:15 NE 9 0.00 Overcast OVC024 68.5 60.1 75% 30.08 0.0
23 15:55 NE 6 0.00 Overcast BKN022 OVC048 69.4 60.6 74% 30.08 0.0
23 15:15 NE 10 0.00 Overcast OVC020 68 60.3 76% 30.08 0.0
23 14:55 NE 8 0.00 Overcast OVC020 67.3 59.9 77% 30.08 0.0
23 14:35 NE 9 0.00 Overcast OVC018 67.1 60.4 79% 30.08 0.0
23 14:15 NE 9 0.00 Overcast OVC016 67.1 60.6 80% 30.08 0.0
23 13:55 NE 9 0.00 Overcast OVC014 66.4 60.4 81% 30.08 0.0
23 13:35 NE 6 0.00 Overcast OVC012 66.2 60.8 83% 30.08 0.0
23 13:15 NE 8 0.00 Overcast OVC012 64.8 60.6 87% 30.08 0.0
23 12:55 N 9 0.00 Overcast OVC012 64.8 60.8 65.3 61.7 87% 30.07 0.0
23 12:35 N 7 0.00 Overcast OVC012 64.9 60.3 85% 30.08 0.0
23 12:15 N 8 0.00 Overcast OVC010 64.6 60.4 87% 30.07 0.0
23 11:55 N 8 0.00 Overcast OVC008 63.5 61 92% 30.08 0.0
23 11:35 N 7 0.00 Overcast BKN008 OVC020 63.1 60.8 92% 30.08 0.0
23 11:15 N 8 0.00 Overcast OVC006 63.5 61 92% 30.07 0.0
23 10:55 N 7 0.00 Overcast BKN006 OVC012 62.8 61.2 94% 30.07 0.0
23 10:35 N 6 0.00 Overcast BKN008 OVC015 64.4 62.1 92% 30.06 0.0
23 10:15 N 6 0.00 Overcast BKN008 OVC018 64.6 62.2 92% 30.05 0.0
23 09:55 NE 6 0.00 Overcast OVC008 64.4 62.1 92% 30.05 0.0
23 09:35 NE 5 0.00 Overcast OVC006 64.4 62.4 93% 30.05 0.0
23 09:15 N 6 0.00 Overcast OVC006 64.2 62.1 93% 30.04 0.0
23 08:55 N 6 0.00 Overcast OVC006 63.9 62.1 94% 30.05 0.0
23 08:35 N 5 0.00 Overcast BKN006 OVC013 63.3 61.9 95% 30.04 0.0
23 08:15 NE 6 0.00 NULL NULL 63.1 62.2 97% 30.03 0.0
23 07:55 N 5 0.00 NULL NULL 62.6 61.7 97% 30.03 0.0
23 07:35 N 5 0.00 NULL NULL 62.1 61.5 98% 30.03 0.0
23 07:15 N 3 0.00 NULL NULL 62.1 61.5 98% 30.02 0.0
23 06:55 N 6 0.00 Overcast OVC004 61.9 61.2 62.8 60.3 98% 30.02 0.0
23 06:35 Calm 0.00 Overcast OVC004 61.9 61.3 98% 30.02 0.0
23 06:15 N 5 0.00 Mostly Cloudy BKN008 62.1 61.3 98% 30.02 0.0
23 05:55 N 5 0.00 NULL NULL 61.7 60.8 97% 30.01 0.0
23 05:35 N 7 0.00 Overcast OVC014 62.1 61.5 98% 30.01 0.0
23 05:15 Calm 0.00 NULL NULL 62.1 61.7 99% 30.01 0.0
23 04:55 Calm 0.00 Overcast BKN010 OVC015 61.7 61.7 100% 30.01 0.0
23 04:35 Calm 0.00 NULL NULL 61.7 61.2 98% 30 0.0
23 04:15 Calm 0.00 Overcast BKN005 OVC011 61.3 61.2 99% 29.99 0.0
23 03:55 Calm 0.00 NULL NULL 60.4 60.1 99% 30 0.0
23 03:35 Calm 0.00 NULL NULL 61.9 61.3 98% 29.99 0.0
23 03:15 Calm 0.00 Overcast BKN009 OVC090 62.6 61.7 97% 29.99 0.0
23 02:55 Calm 0.00 Overcast OVC009 62.6 61.9 98% 30 0.0
23 02:35 Calm 0.00 NULL NULL 62.4 61.7 98% 30 0.0
23 02:15 Calm 0.00 Overcast BKN003 OVC007 62.4 61.9 98% 30 0.0
23 01:55 E 3 0.00 Overcast OVC003 62.2 61.7 98% 30 0.0
23 01:35 Calm 0.00 Overcast OVC003 62.6 62.2 99% 30 0.0
23 01:15 Calm 0.00 Overcast OVC003 62.6 62.2 99% 30 0.0
23 00:55 Calm 0.00 Overcast OVC003 62.8 62.4 63.9 62.4 99% 30 0.0 0.05
23 00:35 Calm 0.00 Overcast OVC003 62.8 62.4 99% 30 0.0
23 00:15 Calm 0.00 Overcast OVC003 62.8 62.6 99% 30 0.0
22 23:55 N 5 0.00 Overcast BKN003 BKN007 OVC012 62.6 62.2 99% 30 0.0
22 23:35 Calm 0.00 Mostly Cloudy BKN003 BKN007 BKN011 62.6 62.1 98% 30 0.0
22 23:15 NW 7 0.00 NULL NULL 63 62.6 99% 30 0.0
22 22:55 NW 6 0.00 Overcast OVC006 63.5 62.8 98% 30 0.0
22 22:35 NW 5 0.00 Overcast BKN006 OVC095 63.5 62.6 97% 29.99 0.0
22 22:15 Calm 0.00 NULL NULL 63.1 62.6 98% 29.99 0.0
22 21:55 Calm 0.00 NULL NULL 63.5 62.6 97% 29.98 0.0 0.05
22 21:35 SE 3 0.00 NULL NULL 63.7 62.6 96% 29.98 0.0
22 21:15 E 5 0.00 NULL NULL 63.5 62.6 97% 29.97 0.0
22 20:55 SE 7 0.00 NULL NULL 63.5 62.6 97% 29.97 0.0
22 20:35 SE 8 0.00 NULL NULL 63.1 62.6 98% 29.98 0.0
22 20:15 E 6 0.00 NULL NULL 63.1 62.6 98% 29.99 0.0
22 19:55 E 7 0.00 NULL NULL 63.5 62.8 98% 29.99 0.0 0.05
22 19:35 E 6 0.00 Thunderstorm in Vicinity NULL 63.9 62.8 96% 29.99 0.0 0.04
22 19:15 Calm 0.00 Thunderstorm in Vicinity NULL 63.5 62.2 96% 29.99 0.0 0.02
22 18:55 W 3 0.00 Thunderstorm NULL 63.5 62.2 79 63.5 96% 29.99 0.0 0.13 0.2
22 18:35 W 3 0.00 Thunderstorm NULL 63.5 61.9 95% 30 0.0 0.1
22 18:15 N 7 0.00 Thunderstorm NULL 64.4 61.5 90% 30 0.0 0.08
22 17:55 NW 17 G 25 0.00 Thunderstorm BKN025 BKN032 BKN070 66.6 62.6 87% 30.02 0.0 0.01
22 17:35 N 12 0.00 Thunderstorm in Vicinity NULL 68.4 63.7 85% 29.99 0.0 0.01
22 17:15 Calm 0.00 Mostly Cloudy SCT034 SCT045 BKN055 69.4 62.1 78% 29.98 0.0
22 16:55 SW 6 0.00 NULL NULL 69.8 63.1 80% 29.99 0.0
22 16:35 SW 7 0.00 Partly Cloudy SCT050 SCT080 SCT110 70.5 62.6 76% 29.98 0.0
22 16:15 SW 7 0.00 Mostly Cloudy SCT070 BKN110 70.7 64.8 82% 29.98 0.0
22 15:55 W 6 0.00 NULL NULL 70.2 66.2 87% 29.98 0.0 0.06 0.06
22 15:35 S 9 G 17 0.00 Thunderstorm SCT027 SCT035 BKN120 69.3 63.5 82% 29.98 0.0 0.06
22 15:15 SW 7 G 10 0.00 NULL NULL 70.5 68 92% 30.01 0.0 0.06
22 14:55 SW 7 0.00 Thunderstorm SCT033 BKN046 OVC090 75.2 66.6 75% 76 30 0.0
22 14:35 SW 9 0.00 Mostly Cloudy BKN033 BKN050 BKN065 76.5 66.2 71% 78 29.99 0.0
22 14:15 S 10 0.00 Overcast SCT032 BKN037 OVC080 78.1 66.2 67% 80 30 0.0
22 13:55 S 9 0.00 Mostly Cloudy SCT030 BKN036 BKN050 78.3 66.2 67% 80 30 0.0
22 13:35 S 9 0.00 Mostly Cloudy SCT026 SCT049 BKN060 79 67.5 68% 81 30.02 0.0
22 13:15 SW 8 0.00 Mostly Cloudy SCT026 SCT041 BKN075 78.6 66.9 67% 81 30.03 0.0
22 12:55 SW 9 0.00 Partly Cloudy SCT022 SCT029 SCT046 77.9 67.8 77.9 58.5 71% 80 30.03 0.0
22 12:35 S 8 0.00 Mostly Cloudy SCT024 BKN029 BKN050 77 67.5 73% 79 30.03 0.0
22 12:15 S 7 0.00 Mostly Cloudy SCT022 BKN030 BKN049 75.4 67.1 76% 77 30.05 0.0
22 11:55 SW 8 0.00 Mostly Cloudy SCT019 BKN025 BKN032 76.3 67.5 74% 78 30.05 0.0
22 11:35 S 7 0.00 Mostly Cloudy BKN021 BKN029 BKN037 76.1 67.8 76% 77 30.05 0.0
22 11:15 S 6 0.00 Overcast OVC019 73.9 66.4 77% 30.06 0.0
22 10:55 SW 7 0.00 Mostly Cloudy SCT017 BKN029 BKN050 73.9 66.7 78% 30.07 0.0
22 10:35 SW 7 0.00 Mostly Cloudy SCT029 BKN035 BKN050 72.5 65.8 80% 30.08 0.0
22 10:15 S 3 0.00 Partly Cloudy SCT021 SCT035 71.6 65.3 81% 30.07 0.0
22 09:55 Calm 0.00 Partly Cloudy SCT021 SCT035 70.9 65.3 83% 30.08 0.0
22 09:35 SW 5 0.00 Partly Cloudy SCT023 68.4 63.3 84% 30.09 0.0
22 09:15 SW 5 0.00 Partly Cloudy SCT019 SCT055 SCT080 67.1 62.2 84% 30.09 0.0
22 08:55 S 3 0.00 Mostly Cloudy SCT018 BKN055 BKN070 65.5 61 85% 30.09 0.0
22 08:35 Calm 0.00 Mostly Cloudy BKN050 BKN065 BKN085 63.1 59.9 89% 30.1 0.0
22 08:15 Calm 0.00 NULL NULL 62.1 58.6 89% 30.1 0.0
22 07:55 Calm 0.00 NULL NULL 60.8 58.1 91% 30.1 0.0
22 07:35 Calm 0.00 NULL NULL 59.4 57.2 93% 30.1 0.0
22 07:15 Calm 0.00 Mostly Cloudy BKN070 59.4 56.8 91% 30.09 0.0
22 06:55 Calm 0.00 NULL NULL 58.5 56.7 59.5 54.5 94% 30.09 0.0
22 06:35 Calm 0.00 NULL NULL 58.3 56.3 93% 30.1 0.0
22 06:15 Calm 0.00 NULL NULL 57.6 56.3 96% 30.1 0.0
22 05:55 Calm 0.00 NULL NULL 57 56.5 98% 30.1 0.0
22 05:35 Calm 0.00 NULL NULL 55.4 54.5 97% 30.1 0.0
22 05:15 Calm 0.00 NULL NULL 54.7 54.1 98% 30.1 0.0
22 04:55 Calm 0.00 NULL NULL 55.6 55.2 99% 30.1 0.0
Date Time (cdt) Wind (mph) Vis. (mi.) Weather Sky Cond. Air Dwpt Max. Min. Relative Humidity Wind Chill (°F) Heat Index (°F) altimeter (in) sea level (mb) 1 hr 3 hr 6 hr
6 hour
Temperature (ºF) Pressure Precipitation (in)